Tracking 18851 objects as of 25-Nov-2017
HD Live streaming from Space Station
objects crossing your sky now

COSMOS 446

Track COSMOS 446 now!
10-day predictions
COSMOS 446 is classified as:


NORAD ID: 5549
Int'l Code: 1971-086C
Perigee: 1,388.2 km
Apogee: 1,518.3 km
Inclination: 74.0 °
Period: 114.8 minutes
Semi major axis: 7824 km
RCS: 0.7417 m2 (medium)
Launch date: October 13, 1971
Source: Commonwealth of Independent States (former USSR) (CIS)
Launch site: PLESETSK MISSILE AND SPACE COMPLEX (PKMTR)
aabbcc
Your satellite tracking list
Your tracking list is empty




NASA's NSSDC Master Catalog

Two Line Element Set (TLE):
1  5549U 71086C   17328.53572926 -.00000017 +00000-0 -88780-5 0  9991
2  5549 074.0275 347.9600 0083134 157.6814 316.2760 12.54409600111683
Source of the keplerian elements: AFSPC